Weather History for KORE - September, 2011

Change the Weather History Date:

Thursday, September 8, 2011

  Actual Average Record
Temperature  
Mean Temperature 64 °F -  
Max Temperature 73 °F 73 °F 89 °F (2007)
Min Temperature 57 °F 50 °F 44 °F (2000)
Growing Degree Days 14 (Base 50)    
Moisture  
Dew Point 59 °F    
Average Humidity 90    
Maximum Humidity 100    
Minimum Humidity 73    
Precipitation  
Precipitation 1.09 in - - ()
Sea Level Pressure  
Sea Level Pressure 30.07 in    
Wind  
Wind Speed 3 mph (NE)    
Max Wind Speed 8 mph    
Max Gust Speed -    
Visibility 9 miles    
Events Rain    
Averages and records for this station are not official NWS values.
T = Trace of Precipitation, MM = Missing Value Source: NWS Daily Summary

Daily Weather History Graph

Daily Weather History Graph

Search for Another Location

Airport or City:

Trip Planner

Search our weather history database for the weather conditions in past years. The results will help you decide how hot, cold, wet, or windy it might be!

Date:

Astronomy

Sep. 08, 2011 Rise Set
Actual Time 6:21 AM EDT 7:11 PM EDT
Civil Twilight 5:52 AM EDT 7:40 PM EDT
Nautical Twilight 5:18 AM EDT 8:14 PM EDT
Astronomical Twilight 4:43 AM EDT 8:49 PM EDT
Moon 5:07 PM EDT (9/8) 2:32 AM EDT (9/8)
Length of Visible Light 13h 47m
Length of Day
12h 50m
Waxing Gibbous, 87% of the Moon is Illuminated
Sep 8
Waxing Gibbous
Sep 12
Full
Sep 20
Last Quarter
Sep 27
New
Oct 3
First Quarter

Hourly Weather History & Observations

Time (EDT) Temp. Dew Point Humidity Pressure Visibility Wind Dir Wind Speed Gust Speed Precip Events Conditions
1:52 AM 57.0 °F 55.9 °F 96% 30.13 in 10.0 mi Calm Calm - N/A   Overcast
2:10 AM 57.2 °F 55.4 °F 94% 30.12 in 10.0 mi North 5.8 mph - 0.00 in Rain Light Rain
2:52 AM 57.0 °F 55.9 °F 96% 30.12 in 10.0 mi North 4.6 mph - 0.00 in   Overcast
3:52 AM 57.0 °F 55.9 °F 96% 30.12 in 10.0 mi NNW 5.8 mph - 0.09 in Rain Light Rain
4:52 AM 57.0 °F 55.0 °F 93% 30.11 in 4.0 mi Calm Calm - 0.14 in Rain Rain
5:02 AM 57.2 °F 55.4 °F 94% 30.10 in 7.0 mi East 4.6 mph - 0.01 in Rain Light Rain
5:14 AM 57.2 °F 55.4 °F 94% 30.09 in 10.0 mi ENE 5.8 mph - 0.01 in Rain Light Rain
5:22 AM 57.2 °F 55.4 °F 94% 30.09 in 10.0 mi North 6.9 mph - 0.02 in Rain Light Rain
5:52 AM 57.0 °F 55.0 °F 93% 30.08 in 7.0 mi North 5.8 mph - 0.10 in Rain Rain
6:52 AM 57.0 °F 55.9 °F 96% 30.12 in 4.0 mi Calm Calm - 0.26 in Rain Rain
7:16 AM 57.2 °F 55.4 °F 94% 30.13 in 2.5 mi Calm Calm - 0.13 in Rain Heavy Rain
7:52 AM 57.0 °F 55.9 °F 96% 30.14 in 2.5 mi Calm Calm - 0.31 in Rain Rain
8:16 AM 57.2 °F 55.4 °F 94% 30.15 in 3.0 mi Calm Calm - 0.11 in Rain Rain
8:26 AM 57.2 °F 55.4 °F 94% 30.14 in 5.0 mi Calm Calm - 0.13 in Rain Rain
8:52 AM 57.9 °F 57.0 °F 97% 30.14 in 8.0 mi Calm Calm - 0.17 in Rain Light Rain
8:57 AM 57.2 °F 55.4 °F 94% 30.13 in 8.0 mi Variable 3.5 mph - 0.01 in Rain Light Rain
9:05 AM 57.2 °F 55.4 °F 94% 30.13 in 8.0 mi Calm Calm - 0.01 in Rain Light Rain
9:52 AM 60.1 °F 57.0 °F 90% 30.12 in 10.0 mi ESE 3.5 mph - 0.02 in   Overcast
10:23 AM 62.6 °F 57.2 °F 82% 30.09 in 10.0 mi ESE 3.5 mph - N/A   Overcast
10:52 AM 63.0 °F 59.0 °F 87% 30.07 in 10.0 mi North 8.1 mph - N/A   Overcast
11:52 AM 64.9 °F 60.1 °F 84% 30.08 in 10.0 mi NE 4.6 mph - N/A   Overcast
12:13 PM 64.4 °F 60.8 °F 88% 30.08 in 10.0 mi ENE 5.8 mph - N/A   Overcast
12:52 PM 66.0 °F 60.1 °F 81% 30.08 in 10.0 mi ENE 5.8 mph - N/A   Overcast
1:52 PM 66.0 °F 61.0 °F 84% 30.06 in 10.0 mi NNE 8.1 mph - N/A   Overcast
2:35 PM 69.8 °F 62.6 °F 78% 30.04 in 10.0 mi ENE 3.5 mph - N/A   Overcast
2:52 PM 71.1 °F 62.1 °F 73% 30.04 in 10.0 mi Variable 3.5 mph - N/A   Overcast
4:52 PM 72.0 °F 64.0 °F 76% 30.01 in 10.0 mi Variable 4.6 mph - N/A   Scattered Clouds
5:52 PM 69.1 °F 64.0 °F 84% 30.00 in 10.0 mi SW 4.6 mph - N/A   Scattered Clouds
6:52 PM 69.1 °F 64.9 °F 87% 29.99 in 10.0 mi Calm Calm - N/A   Overcast
7:35 PM 68.0 °F 64.4 °F 88% 29.99 in 10.0 mi East 5.8 mph - N/A   Overcast
7:52 PM 68.0 °F 64.0 °F 87% 30.00 in 10.0 mi Calm Calm - N/A   Overcast
8:52 PM 66.9 °F 63.0 °F 87% 30.01 in 10.0 mi Calm Calm - N/A   Overcast
9:50 PM 66.2 °F 62.6 °F 88% 30.01 in 10.0 mi Calm Calm - N/A   Overcast
9:52 PM 66.0 °F 63.0 °F 90% 30.01 in 10.0 mi Calm Calm - N/A   Overcast
10:52 PM 64.9 °F 63.0 °F 93% 29.99 in 10.0 mi Calm Calm - N/A   Mostly Cloudy
11:10 PM 64.4 °F 62.6 °F 94% 29.98 in 10.0 mi North 3.5 mph - N/A   Scattered Clouds
11:28 PM 64.4 °F 62.6 °F 94% 29.97 in 10.0 mi Calm Calm - N/A   Mostly Cloudy
11:49 PM 62.6 °F 62.6 °F 100% 29.96 in 10.0 mi North 5.8 mph - N/A   Mostly Cloudy
11:52 PM 64.0 °F 62.1 °F 93% 29.96 in 10.0 mi North 4.6 mph - N/A   Mostly Cloudy